This demonstration page uses our WeatherBlox Daily Observations layout. Learn more.

Left ArrowRight Arrow

Hourly Observations for May 17, 2015

Temp ( °F °C ) Dew Point ( °F °C ) Humidity (%) Winds ( mph kmh ) Pressure ( in mb ) Visibility ( mi km ) Precip ( " mm )
12:53 am 00:53 Clear 68 20 28 -2.2 22 22 NW 9 15 29.78 1008 10 16 0.00 0.00
1:53 am 01:53 Clear 61 16.1 33 0.6 35 35 NNW 7 11 29.79 1009 10 16 0.00 0.00
2:53 am 02:53 Clear 60 15.6 32 0 35 35 NW 8 13 29.80 1009 10 16 0.00 0.00
3:53 am 03:53 Clear 57 13.9 35 1.7 44 44 VRB 6 9 29.83 1010 10 16 0.00 0.00
4:53 am 04:53 Clear 57 13.9 34 1.1 42 42 NW 8 13 29.84 1011 10 16 0.00 0.00
5:53 am 05:53 Clear 53 11.7 36 2.2 52 52 NW 8 13 29.86 1011 10 16 0.00 0.00
6:53 am 06:53 Clear 51 10.6 38 3.3 61 61 NW 5 7 29.88 1012 10 16 0.00 0.00
7:53 am 07:53 Sunny 56 13.3 39 3.9 53 53 N 5 7 29.90 1012 10 16 0.00 0.00
8:53 am 08:53 Sunny 66 18.9 38 3.3 36 36 NNE 5 7 29.92 1013 10 16 0.00 0.00
9:53 am 09:53 Sunny 70 21.1 35 1.7 28 28 Calm 29.93 1014 10 16 0.00 0.00
10:53 am 10:53 Sunny 74 23.3 32 0 21 21 WSW 5 7 29.93 1014 10 16 0.00 0.00
11:53 am 11:53 Sunny 74 23.3 31 -0.6 20 20 S 9 15 29.92 1013 10 16 0.00 0.00
12:53 pm 12:53 Sunny 78 25.6 33 0.6 19 19 SSW 14 22 29.93 1014 10 16 0.00 0.00
1:53 pm 13:53 Sunny 80 26.7 30 -1.1 16 16 SSW 9 15 29.93 1013 10 16 0.00 0.00
2:53 pm 14:53 Sunny 81 27.2 30 -1.1 16 16 WSW 10 17 29.91 1013 10 16 0.00 0.00
3:53 pm 15:53 Sunny 83 28.3 31 -0.6 15 15 WSW 10 17 29.90 1012 10 16 0.00 0.00
4:53 pm 16:53 Sunny 84 28.9 30 -1.1 14 14 SW 15 24 29.87 1012 10 16 0.00 0.00
5:53 pm 17:53 Sunny 84 28.9 29 -1.7 13 13 VRB 6 9 29.87 1012 10 16 0.00 0.00
6:53 pm 18:53 Sunny 83 28.3 29 -1.7 14 14 Calm 29.87 1012 10 16 0.00 0.00
7:53 pm 19:53 Sunny 83 28.3 32 0 16 16 SSW 6 9 29.87 1012 10 16 0.00 0.00
8:53 pm 20:53 Clear 78 25.6 39 3.9 25 25 Calm 29.88 1012 10 16 0.00 0.00
9:53 pm 21:53 Clear 71 21.7 41 5 34 34 SE 7 11 29.90 1013 10 16 0.00 0.00
10:53 pm 22:53 Clear 70 21.1 40 4.4 34 34 ESE 9 15 29.92 1013 10 16 0.00 0.00
11:53 pm 23:53 Clear 70 21.1 38 3.3 31 31 ESE 10 17 29.93 1014 10 16 0.00 0.00

Powered by AerisWeather